Terminal Aerodrome Forecast
Issued by NWS

Home | Current Version | Previous Version | Text Only | Print | Product List | Glossary On
Versions: 1 2 3 4 5 6 7 8 9 10 11 12 13
000
FTUS42 TJSJ 031700 RRA
TAFKPK
TAF
TKPK 031741Z 0318/0418 06015KT P6SM SCT022
     FM032300 05010KT P6SM FEW020
      AMD NOT SKED 0402/0411=

USA.gov is the U.S. government's official web portal to all federal, state and local government web resources and services.